Time,TemperatureF,DewpointF,PressureIn,WindDirection,WindDirectionDegrees,WindSpeedMPH,WindSpeedGustMPH,Humidity,HourlyPrecipIn,Conditions,Clouds,dailyrainin,SoftwareType,DateUTC
2013-03-27 00:02:00,48.0,48.0,30.01,SE,135,2.0,5.0,100,0.00,,,0.01,,2013-03-27 07:02:00,
2013-03-27 00:12:00,48.0,48.0,30.01,SE,135,2.0,5.0,100,0.00,,,0.01,,2013-03-27 07:12:00,
2013-03-27 00:22:00,48.0,48.0,30.01,ESE,119,1.0,4.0,100,0.00,,,0.01,,2013-03-27 07:22:00,
2013-03-27 00:32:00,48.0,48.0,30.01,SE,137,3.0,4.0,100,0.00,,,0.01,,2013-03-27 07:32:00,
2013-03-27 00:42:00,48.0,48.0,30.01,SE,137,3.0,4.0,100,0.00,,,0.01,,2013-03-27 07:42:00,
2013-03-27 00:53:00,48.0,48.0,30.00,East,101,3.0,5.0,100,0.00,,,0.01,,2013-03-27 07:53:00,
2013-03-27 01:02:00,48.0,48.0,30.00,East,86,4.0,7.0,100,0.00,,,0.01,,2013-03-27 08:02:00,
2013-03-27 01:12:00,48.0,48.0,30.00,East,86,4.0,7.0,100,0.00,,,0.01,,2013-03-27 08:12:00,
2013-03-27 01:22:00,48.0,48.0,29.99,East,89,4.0,6.0,100,0.00,,,0.01,,2013-03-27 08:22:00,
2013-03-27 01:32:00,47.0,47.0,29.99,NE,40,2.0,6.0,100,0.00,,,0.01,,2013-03-27 08:32:00,
2013-03-27 01:43:00,47.0,47.0,29.99,NE,40,2.0,6.0,100,0.00,,,0.01,,2013-03-27 08:43:00,
2013-03-27 01:52:00,47.0,47.0,29.99,ENE,78,1.0,4.0,100,0.00,,,0.01,,2013-03-27 08:52:00,
2013-03-27 02:01:00,47.0,47.0,29.99,East,82,3.0,7.0,100,0.00,,,0.01,,2013-03-27 09:01:00,
2013-03-27 02:11:00,47.0,47.0,29.99,East,82,3.0,7.0,100,0.00,,,0.01,,2013-03-27 09:11:00,
2013-03-27 02:21:00,47.0,47.0,29.98,East,95,4.0,6.0,100,0.00,,,0.01,,2013-03-27 09:21:00,
2013-03-27 02:32:00,47.0,47.0,29.98,East,95,4.0,6.0,100,0.00,,,0.01,,2013-03-27 09:32:00,
2013-03-27 02:42:00,47.0,47.0,29.98,East,95,4.0,6.0,100,0.00,,,0.01,,2013-03-27 09:42:00,
2013-03-27 02:52:00,47.0,47.0,29.98,East,100,2.0,5.0,100,0.00,,,0.01,,2013-03-27 09:52:00,
2013-03-27 03:02:00,47.0,47.0,29.98,East,100,2.0,5.0,100,0.00,,,0.01,,2013-03-27 10:02:00,
2013-03-27 03:12:00,47.0,47.0,29.98,East,100,2.0,5.0,100,0.00,,,0.01,,2013-03-27 10:12:00,
2013-03-27 03:22:00,47.0,47.0,29.97,NE,56,4.0,9.0,100,0.00,,,0.01,,2013-03-27 10:22:00,
2013-03-27 03:32:00,47.0,47.0,29.97,NE,48,4.0,6.0,100,0.00,,,0.01,,2013-03-27 10:32:00,
2013-03-27 03:42:00,47.0,47.0,29.97,NE,48,4.0,6.0,100,0.00,,,0.01,,2013-03-27 10:42:00,
2013-03-27 03:52:00,47.0,47.0,29.96,ENE,78,3.0,6.0,100,0.00,,,0.01,,2013-03-27 10:52:00,
2013-03-27 04:02:00,47.0,47.0,29.96,NE,55,4.0,6.0,100,0.00,,,0.01,,2013-03-27 11:02:00,
2013-03-27 04:11:00,47.0,47.0,29.96,NE,55,4.0,6.0,100,0.00,,,0.01,,2013-03-27 11:11:00,
2013-03-27 04:22:00,47.0,47.0,29.96,East,95,3.0,5.0,100,0.00,,,0.01,,2013-03-27 11:22:00,
2013-03-27 04:32:00,48.0,48.0,29.96,East,85,3.0,5.0,100,0.00,,,0.01,,2013-03-27 11:32:00,
2013-03-27 04:42:00,48.0,48.0,29.96,East,85,3.0,5.0,100,0.00,,,0.01,,2013-03-27 11:42:00,
2013-03-27 04:52:00,47.0,47.0,29.96,ENE,74,3.0,5.0,100,0.00,,,0.01,,2013-03-27 11:52:00,
2013-03-27 05:02:00,48.0,48.0,29.96,ENE,59,3.0,6.0,100,0.00,,,0.01,,2013-03-27 12:02:00,
2013-03-27 05:12:00,48.0,48.0,29.96,ENE,59,3.0,6.0,100,0.00,,,0.01,,2013-03-27 12:12:00,
2013-03-27 05:22:00,47.0,47.0,29.96,SE,127,1.0,3.0,100,0.00,,,0.01,,2013-03-27 12:22:00,
2013-03-27 05:32:00,47.0,47.0,29.96,ESE,111,1.0,3.0,100,0.00,,,0.00,,2013-03-27 12:32:00,
2013-03-27 05:42:00,47.0,47.0,29.96,ESE,111,1.0,3.0,100,0.00,,,0.00,,2013-03-27 12:42:00,
2013-03-27 05:51:00,47.0,47.0,29.96,ESE,116,1.0,3.0,100,0.00,,,0.00,,2013-03-27 12:51:00,
2013-03-27 06:02:00,47.0,47.0,29.96,ESE,113,3.0,4.0,100,0.00,,,0.00,,2013-03-27 13:02:00,
2013-03-27 06:12:00,47.0,47.0,29.96,ESE,113,3.0,4.0,100,0.00,,,0.00,,2013-03-27 13:12:00,
2013-03-27 06:22:00,48.0,48.0,29.96,East,86,4.0,5.0,100,0.00,,,0.00,,2013-03-27 13:22:00,
2013-03-27 06:32:00,48.0,48.0,29.96,East,99,1.0,4.0,100,0.00,,,0.00,,2013-03-27 13:32:00,
2013-03-27 06:42:00,48.0,48.0,29.96,East,99,1.0,4.0,100,0.00,,,0.00,,2013-03-27 13:42:00,
2013-03-27 06:52:00,48.0,48.0,29.96,ESE,111,3.0,4.0,100,0.00,,,0.00,,2013-03-27 13:52:00,
2013-03-27 07:02:00,48.0,48.0,29.96,ENE,76,1.0,3.0,100,0.00,,,0.00,,2013-03-27 14:02:00,
2013-03-27 07:11:00,48.0,48.0,29.96,ENE,76,1.0,3.0,100,0.00,,,0.00,,2013-03-27 14:11:00,
2013-03-27 07:21:00,48.0,48.0,29.96,East,80,1.0,2.0,100,0.00,,,0.00,,2013-03-27 14:21:00,
2013-03-27 07:32:00,48.0,48.0,29.96,ENE,77,1.0,4.0,100,0.00,,,0.00,,2013-03-27 14:32:00,
2013-03-27 07:42:00,48.0,48.0,29.96,ENE,77,1.0,4.0,100,0.00,,,0.00,,2013-03-27 14:42:00,
2013-03-27 07:51:00,48.0,48.0,29.96,ENE,74,2.0,4.0,100,0.00,,,0.00,,2013-03-27 14:51:00,
2013-03-27 08:02:00,48.0,48.0,29.96,SE,142,3.0,6.0,100,0.00,,,0.00,,2013-03-27 15:02:00,
2013-03-27 08:11:00,48.0,48.0,29.96,SE,142,3.0,6.0,100,0.00,,,0.00,,2013-03-27 15:11:00,
2013-03-27 08:22:00,49.0,49.0,29.96,East,92,3.0,5.0,100,0.00,,,0.00,,2013-03-27 15:22:00,
2013-03-27 08:32:00,49.0,49.0,29.97,East,98,3.0,5.0,100,0.00,,,0.00,,2013-03-27 15:32:00,
2013-03-27 08:42:00,49.0,49.0,29.97,East,98,3.0,5.0,100,0.00,,,0.00,,2013-03-27 15:42:00,
2013-03-27 08:52:00,49.0,49.0,29.97,East,84,2.0,4.0,100,0.00,,,0.00,,2013-03-27 15:52:00,
2013-03-27 09:02:00,50.0,50.0,29.97,ESE,113,3.0,9.0,100,0.00,,,0.00,,2013-03-27 16:02:00,
2013-03-27 09:12:00,50.0,50.0,29.97,ESE,113,3.0,9.0,100,0.00,,,0.00,,2013-03-27 16:12:00,
2013-03-27 09:22:00,50.0,50.0,29.97,East,80,3.0,5.0,100,0.00,,,0.00,,2013-03-27 16:22:00,
2013-03-27 09:32:00,51.0,51.0,29.97,SE,138,2.0,3.0,100,0.00,,,0.00,,2013-03-27 16:32:00,
2013-03-27 09:42:00,51.0,51.0,29.97,SE,138,2.0,3.0,100,0.00,,,0.00,,2013-03-27 16:42:00,
2013-03-27 09:52:00,52.0,52.0,29.97,ENE,61,1.0,2.0,100,0.00,,,0.00,,2013-03-27 16:52:00,
2013-03-27 10:02:00,52.0,52.0,29.97,SE,142,3.0,5.0,100,0.00,,,0.00,,2013-03-27 17:02:00,
2013-03-27 10:11:00,52.0,52.0,29.97,SE,142,3.0,5.0,100,0.00,,,0.00,,2013-03-27 17:11:00,
2013-03-27 10:22:00,52.0,52.0,29.97,SE,125,3.0,5.0,100,0.00,,,0.00,,2013-03-27 17:22:00,
2013-03-27 10:32:00,54.0,54.0,29.97,SSE,152,0.0,4.0,100,0.00,,,0.00,,2013-03-27 17:32:00,
2013-03-27 10:44:00,54.0,54.0,29.97,SSE,152,0.0,4.0,100,0.00,,,0.00,,2013-03-27 17:44:00,
2013-03-27 11:02:00,53.0,53.0,29.97,West,277,4.0,5.0,100,0.00,,,0.00,,2013-03-27 18:02:00,
2013-03-27 11:12:00,53.0,53.0,29.97,West,277,4.0,5.0,100,0.00,,,0.00,,2013-03-27 18:12:00,
2013-03-27 11:22:00,52.0,52.0,29.98,SW,226,3.0,5.0,100,0.00,,,0.00,,2013-03-27 18:22:00,
2013-03-27 11:32:00,53.0,53.0,29.98,SW,227,2.0,6.0,100,0.00,,,0.00,,2013-03-27 18:32:00,
2013-03-27 11:42:00,53.0,53.0,29.98,SW,227,2.0,6.0,100,0.00,,,0.00,,2013-03-27 18:42:00,
2013-03-27 11:52:00,52.0,52.0,29.98,West,267,4.0,7.0,100,0.00,,,0.00,,2013-03-27 18:52:00,
2013-03-27 12:02:00,52.0,52.0,29.98,WSW,257,5.0,8.0,100,0.00,,,0.00,,2013-03-27 19:02:00,
2013-03-27 12:12:00,52.0,52.0,29.98,WSW,257,5.0,8.0,100,0.00,,,0.00,,2013-03-27 19:12:00,
2013-03-27 12:21:00,52.0,52.0,29.98,SW,231,5.0,7.0,100,0.00,,,0.00,,2013-03-27 19:21:00,
2013-03-27 12:32:00,52.0,52.0,29.98,WSW,248,5.0,9.0,100,0.00,,,0.00,,2013-03-27 19:32:00,
2013-03-27 12:42:00,52.0,52.0,29.98,WSW,248,5.0,9.0,100,0.00,,,0.00,,2013-03-27 19:42:00,
2013-03-27 12:52:00,53.0,53.0,29.98,SSW,211,2.0,7.0,100,0.00,,,0.00,,2013-03-27 19:52:00,
2013-03-27 13:02:00,54.0,54.0,29.98,SW,234,5.0,9.0,100,0.00,,,0.00,,2013-03-27 20:02:00,
2013-03-27 13:12:00,54.0,54.0,29.98,SW,234,5.0,9.0,100,0.00,,,0.00,,2013-03-27 20:12:00,
2013-03-27 13:22:00,53.0,53.0,29.99,SSE,153,5.0,10.0,100,0.00,,,0.00,,2013-03-27 20:22:00,
2013-03-27 13:32:00,52.0,52.0,29.99,SW,214,9.0,13.0,100,0.00,,,0.00,,2013-03-27 20:32:00,
2013-03-27 13:42:00,52.0,52.0,29.99,SW,214,9.0,13.0,100,0.00,,,0.00,,2013-03-27 20:42:00,
2013-03-27 13:52:00,52.0,52.0,29.99,SSW,201,5.0,13.0,100,0.00,,,0.00,,2013-03-27 20:52:00,
2013-03-27 14:02:00,53.0,53.0,29.99,WSW,254,3.0,10.0,100,0.00,,,0.00,,2013-03-27 21:02:00,
2013-03-27 14:12:00,53.0,53.0,29.99,WSW,254,3.0,10.0,100,0.00,,,0.00,,2013-03-27 21:12:00,
2013-03-27 14:22:00,52.0,52.0,30.00,SW,230,5.0,11.0,100,0.00,,,0.00,,2013-03-27 21:22:00,
2013-03-27 14:32:00,52.0,52.0,30.00,SW,229,6.0,10.0,100,0.00,,,0.00,,2013-03-27 21:32:00,
2013-03-27 14:43:00,52.0,52.0,30.00,SW,229,6.0,10.0,100,0.00,,,0.00,,2013-03-27 21:43:00,
2013-03-27 14:52:00,51.0,51.0,30.00,SW,223,7.0,10.0,100,0.00,,,0.00,,2013-03-27 21:52:00,
2013-03-27 15:02:00,52.0,52.0,30.00,WSW,245,4.0,7.0,100,0.00,,,0.00,,2013-03-27 22:02:00,
2013-03-27 15:12:00,52.0,52.0,30.00,WSW,245,4.0,7.0,100,0.00,,,0.00,,2013-03-27 22:12:00,
2013-03-27 15:23:00,52.0,52.0,30.00,SW,219,4.0,9.0,100,0.00,,,0.00,,2013-03-27 22:23:00,
2013-03-27 15:32:00,51.0,51.0,30.00,SSW,211,4.0,8.0,100,0.01,,,0.01,,2013-03-27 22:32:00,
2013-03-27 15:42:00,51.0,51.0,30.00,SSW,211,4.0,8.0,100,0.01,,,0.01,,2013-03-27 22:42:00,
2013-03-27 15:52:00,52.0,52.0,30.00,SSW,195,3.0,5.0,100,0.01,,,0.01,,2013-03-27 22:52:00,
2013-03-27 16:02:00,51.0,51.0,30.00,SW,221,6.0,10.0,100,0.01,,,0.01,,2013-03-27 23:02:00,
2013-03-27 16:12:00,51.0,51.0,30.00,SW,221,6.0,10.0,100,0.01,,,0.01,,2013-03-27 23:12:00,
2013-03-27 16:22:00,51.0,51.0,30.00,SW,234,4.0,9.0,100,0.01,,,0.01,,2013-03-27 23:22:00,
2013-03-27 16:32:00,51.0,51.0,30.00,SW,215,3.0,7.0,100,0.00,,,0.01,,2013-03-27 23:32:00,
2013-03-27 16:42:00,51.0,51.0,30.00,SW,215,3.0,7.0,100,0.00,,,0.01,,2013-03-27 23:42:00,
2013-03-27 16:51:00,51.0,51.0,30.00,South,191,4.0,7.0,100,0.00,,,0.01,,2013-03-27 23:51:00,
2013-03-27 17:02:00,51.0,51.0,30.01,WSW,242,4.0,7.0,100,0.00,,,0.01,,2013-03-28 00:02:00,
2013-03-27 17:12:00,51.0,51.0,30.01,WSW,242,4.0,7.0,100,0.00,,,0.01,,2013-03-28 00:12:00,
2013-03-27 17:22:00,51.0,51.0,30.01,WSW,239,3.0,6.0,100,0.00,,,0.01,,2013-03-28 00:22:00,
2013-03-27 17:32:00,51.0,51.0,30.01,WSW,248,2.0,6.0,100,0.00,,,0.01,,2013-03-28 00:32:00,
2013-03-27 17:42:00,51.0,51.0,30.01,WSW,248,2.0,6.0,100,0.00,,,0.01,,2013-03-28 00:42:00,
2013-03-27 17:52:00,51.0,51.0,30.01,SSE,165,2.0,4.0,100,0.00,,,0.01,,2013-03-28 00:52:00,
2013-03-27 18:01:00,52.0,52.0,30.01,SE,146,0.0,4.0,100,0.00,,,0.01,,2013-03-28 01:01:00,
2013-03-27 18:12:00,52.0,52.0,30.01,SE,146,0.0,4.0,100,0.00,,,0.01,,2013-03-28 01:12:00,
2013-03-27 18:21:00,52.0,52.0,30.01,SSW,198,2.0,5.0,100,0.00,,,0.01,,2013-03-28 01:21:00,
2013-03-27 18:32:00,52.0,52.0,30.01,SSW,198,1.0,3.0,100,0.00,,,0.01,,2013-03-28 01:32:00,
2013-03-27 18:42:00,52.0,52.0,30.01,SSW,198,1.0,3.0,100,0.00,,,0.01,,2013-03-28 01:42:00,
2013-03-27 18:52:00,52.0,52.0,30.01,South,180,1.0,5.0,100,0.00,,,0.01,,2013-03-28 01:52:00,
2013-03-27 19:02:00,52.0,52.0,30.01,SSE,161,1.0,4.0,100,0.00,,,0.01,,2013-03-28 02:02:00,
2013-03-27 19:12:00,52.0,52.0,30.01,SSE,161,1.0,4.0,100,0.00,,,0.01,,2013-03-28 02:12:00,
2013-03-27 19:22:00,53.0,53.0,30.01,South,189,3.0,6.0,100,0.00,,,0.01,,2013-03-28 02:22:00,
2013-03-27 19:32:00,52.0,52.0,30.01,SSW,203,2.0,6.0,100,0.00,,,0.01,,2013-03-28 02:32:00,
2013-03-27 19:42:00,52.0,52.0,30.01,SSW,203,2.0,6.0,100,0.00,,,0.01,,2013-03-28 02:42:00,
2013-03-27 19:51:00,52.0,52.0,30.01,SSW,203,2.0,6.0,100,0.00,,,0.01,,2013-03-28 02:51:00,
2013-03-27 20:02:00,52.0,52.0,30.01,South,173,1.0,5.0,100,0.00,,,0.01,,2013-03-28 03:02:00,
2013-03-27 20:12:00,52.0,52.0,30.01,South,173,1.0,5.0,100,0.00,,,0.01,,2013-03-28 03:12:00,
2013-03-27 20:22:00,51.0,51.0,30.01,ESE,112,0.0,2.0,100,0.00,,,0.01,,2013-03-28 03:22:00,
2013-03-27 20:33:00,51.0,51.0,30.01,SE,143,0.0,2.0,100,0.00,,,0.01,,2013-03-28 03:33:00,
2013-03-27 20:42:00,51.0,51.0,30.01,SE,143,0.0,2.0,100,0.00,,,0.01,,2013-03-28 03:42:00,
2013-03-27 20:52:00,52.0,52.0,30.02,SE,130,2.0,5.0,100,0.00,,,0.01,,2013-03-28 03:52:00,
2013-03-27 21:02:00,52.0,52.0,30.02,SE,129,1.0,4.0,100,0.01,,,0.02,,2013-03-28 04:02:00,
2013-03-27 21:12:00,52.0,52.0,30.02,SE,129,1.0,4.0,100,0.01,,,0.02,,2013-03-28 04:12:00,
2013-03-27 21:22:00,52.0,52.0,30.02,East,95,1.0,3.0,100,0.01,,,0.02,,2013-03-28 04:22:00,
2013-03-27 21:32:00,52.0,52.0,30.03,SE,129,1.0,3.0,100,0.01,,,0.02,,2013-03-28 04:32:00,
2013-03-27 21:42:00,52.0,52.0,30.03,SE,129,1.0,3.0,100,0.01,,,0.02,,2013-03-28 04:42:00,
2013-03-27 21:52:00,52.0,52.0,30.03,SE,130,2.0,3.0,100,0.01,,,0.02,,2013-03-28 04:52:00,
2013-03-27 22:02:00,52.0,52.0,30.03,ESE,123,1.0,2.0,100,0.00,,,0.02,,2013-03-28 05:02:00,
2013-03-27 22:12:00,52.0,52.0,30.03,ESE,123,1.0,2.0,100,0.00,,,0.02,,2013-03-28 05:12:00,
2013-03-27 22:22:00,52.0,52.0,30.03,East,92,0.0,2.0,100,0.00,,,0.02,,2013-03-28 05:22:00,
2013-03-27 22:31:00,52.0,52.0,30.04,East,96,1.0,3.0,100,0.00,,,0.02,,2013-03-28 05:31:00,
2013-03-27 22:42:00,52.0,52.0,30.04,East,96,1.0,3.0,100,0.00,,,0.02,,2013-03-28 05:42:00,
2013-03-27 22:52:00,52.0,52.0,30.03,East,89,2.0,3.0,100,0.00,,,0.02,,2013-03-28 05:52:00,
2013-03-27 23:02:00,52.0,52.0,30.04,ESE,107,1.0,3.0,100,0.00,,,0.02,,2013-03-28 06:02:00,
2013-03-27 23:12:00,52.0,52.0,30.04,ESE,107,1.0,3.0,100,0.00,,,0.02,,2013-03-28 06:12:00,
2013-03-27 23:22:00,52.0,52.0,30.04,SE,130,1.0,3.0,100,0.00,,,0.02,,2013-03-28 06:22:00,
2013-03-27 23:32:00,52.0,52.0,30.04,SE,134,1.0,3.0,100,0.00,,,0.02,,2013-03-28 06:32:00,
2013-03-27 23:42:00,52.0,52.0,30.04,SE,134,1.0,3.0,100,0.00,,,0.02,,2013-03-28 06:42:00,
2013-03-27 23:51:00,52.0,52.0,30.04,East,88,1.0,3.0,100,0.00,,,0.02,,2013-03-28 06:51:00,